Location: Unspecified
(43.4354°N, 0.0000°E)
Time: 04:20:13
(UTC+00:00)

S-56A Canister/Altair - Pass Details

Date: 04 July 2019
Orbit: 633 x 2499 km, 38.9° (Epoch: 21 August)

Event Time Altitude Azimuth Distance (km) Brightness Sun altitude
Rises 17:15:14 0° 282° (WNW) 5,342 13.3 24.2°
Reaches altitude 10° 17:19:30 10° 275° (W) 4,037 13.2 23.4°
Maximum altitude 17:28:15 35° 215° (SW) 1,984 10.2 21.9°
Drops below altitude 10° 17:34:21 10° 152° (SSE) 2,792 10.1 20.8°
Sets 17:36:48 0° 142° (SE) 3,537 10.5 20.3°
